{"data":{"norad_id":47857,"epoch":"2026-05-25T04:38:28.758624Z","epoch_age_seconds":69017,"freshness":"FRESH","line1":"1 47857U 21020D   26145.19338841  .00000044  00000+0  20689-3 0  9996","line2":"2 47857  63.4074 317.1624 0172783   0.3953 359.7179 13.45446306255367","mean_motion":13.45446306,"eccentricity":0.0172783,"inclination_deg":63.4074,"raan_deg":317.1624,"arg_perigee_deg":0.3953,"mean_anomaly_deg":359.7179,"bstar":0.00020689,"rev_number":25536,"period_min":107.02768245588,"perigee_km":960.03927943616,"apogee_km":1218.0802104729,"semimajor_km":7467.1967449545,"source":"CELESTRAK","updated_at":"2026-05-25T13:37:56.597051Z"}}